Simultaneous Nadir Overpasses (SNOs) Predictions

Prediction of SNOs between AQUA and NPP Satellite Orbit:

Table of predicted SNOs for the next 14.0 days since TLE Epoch: 8/26/2023
Index Date (AQUA) Time (AQUA) Lat,Lon (AQUA) SZA (AQUA ) Date (NPP) Time (NPP) Lat,Lon (NPP) SZA (NPP ) Distance(km) Time Diff (sec)
1 08/27/2023 15:33:19 80.77,-142.05 79.99 08/27/2023 15:32:35 80.76,-142.18 80.04 2.32 44
2 08/27/2023 16:22:41 -80.84, 26.56 100.15 08/27/2023 16:23:16 -80.85, 26.66 100.19 1.85 35
3 08/30/2023 06:07:54 80.81, -0.08 80.77 08/30/2023 06:07:56 80.81, -0.12 80.78 0.70 2
4 09/01/2023 19:53:07 -80.80, -26.56 98.32 09/01/2023 19:52:36 -80.79, -26.59 98.29 0.61 31
5 09/01/2023 20:42:28 80.86, 141.94 81.56 09/01/2023 20:43:17 80.86, 141.91 81.54 0.68 49
6 09/04/2023 09:38:17 80.77, -53.13 82.63 09/04/2023 09:37:14 80.77, -53.16 82.67 0.51 63
7 09/04/2023 10:27:40 -80.82, 115.16 97.47 09/04/2023 10:27:57 -80.82, 115.05 97.46 2.00 17
8 09/07/2023 00:12:49 80.83, 88.97 83.43 09/07/2023 00:12:34 80.84, 89.12 83.41 2.77 15



Historial Predications of SNOs between AQUA and NPP
